Skip Page Navigation
NASA JPL Caltech
NASA Logo - Jet Propulsion Laboratory + View the NASA Portal
+ Near-Earth Object (NEO) Program
Search JPL
JPL Home Earth Solar System Stars & Galaxies Technology
JPL Solar System Dynamics
BODIES ORBITS EPHEMERIDES TOOLS PHYSICAL DATA DISCOVERY FAQ SITE MAP
JPL Small-Body Database Browser
Search: [ help ]  
44216 Olivercabasa (1998 PH)
Classification: Main-belt Asteroid          SPK-ID: 2044216
Ephemeris | Orbit Diagram | Orbital Elements | Physical Parameters | Discovery Circumstances ]

[ show orbit diagram ]
Orbital Elements at Epoch 2456400.5 (2013-Apr-18.0) TDB
Reference: MPO257171 (heliocentric ecliptic J2000)
 Element Value Uncertainty (1-sigma)   Units 
e 0.1935327 n/a  
a 2.6445170 n/a AU
q 2.1327165 n/a AU
i 13.92021 n/a deg
node 278.25740 n/a deg
peri 202.70477 n/a deg
M 8.84785 n/a deg
tp 2456361.8941402
(2013-Mar-10.39414020)
n/a JED
period 1570.7894596
4.30
n/a
n/a
d
yr
n 0.22918412 n/a deg/d
Q 3.1563175 n/a AU
  Orbit Determination Parameters
   # obs. used (total)      381  
   first obs. used      1995-??-??  
   last obs. used      2013-03-08  
   # oppositions      11  
   planetary ephem.      DE403  
   condition code      0  
   fit RMS      0.49  
   data source      MPC:mpn  
   producer      MPCLINUX  

Additional Information
 T_jup = 3.325 

Ephemeris | Orbit Diagram | Orbital Elements | Physical Parameters | Discovery Circumstances ]

Physical Parameter Table
Parameter Symbol Value Units Sigma Reference Notes
absolute magnitude H 14.5 mag n/a MPO257171  

44216 Olivercabasa           Discovered 1998 Aug. 4 by E. Vigil and F. Casarramona at Teide Observatory.
Josep Maria Oliver i Cabasa (b. 1944) is one of the most remarkable amateur astronomers in Spain. He co-founded the Agrupació Astronómica de Sabadell in 1960 and has led it for more than 40 years. The main areas of work at Sabadell are popularizing astronomy and studying the history of amateur astronomy in Spain.
NOTE: some special characters may not display properly (any characters within {} are an attempt to place the proper accent above a character)
Reference: 20021120/MPCPages.arcLast Updated: 2003-10-02

Alternate Designations
 1998 PH = 1996 AG4 
Ephemeris | Orbit Diagram | Orbital Elements | Physical Parameters | Discovery Circumstances ]
ABOUT SSD CREDITS/AWARDS PRIVACY/COPYRIGHT GLOSSARY LINKS
FirstGov 2013-May-23 03:00 UT
(server date/time)  
NASA Home Page
Site Manager:   Donald K. Yeomans
Webmaster  Alan B. Chamberlin